NIGHTJAR

Last updated on Mon Sep 16 2024 00:02:03 GMT+0000 (Coordinated Universal Time)

1 60535U 24149BV 24258.87811976 .00009510 00000+0 94689-3 0 9990 2 60535 97.7497 333.8696 0002048 94.1983 265.9470 14.91828986 47134

Satellite not in orbit

NIGHTJAR